星链-35756(STARLINK-35756)

导读

STARLINK-35756是美国SpaceX星链星座的一员,于2025年12月17日发射入轨,归属星链互联网卫星组网项目。星链系统旨在构建覆盖全球的低轨卫星互联网网络,为全球偏远地区、海洋空域等场景提供高速宽带接入服务,该卫星入轨进一步扩充了星链星座的服务覆盖能力与网络容量。

Basic Information
目录编号:
67175
目录名称:
STARLINK-35756
国际标识:
2025-303N
轨道中心:
EARTH
卫星名称:
星链-35756
卫星全名:
星链-35756(STARLINK-35756)
卫星状态:
在轨 (已飞行261 天)
发射日期:
2025-12-17 UTC
国别 :
美国 (US)
星等 :
--
Orbit Information
数据来源 国际轨道数据
星历时间: 2026-09-04T17:17:53+0800
11小时前
查看轨道信息
半长轴: 6861.192km
偏心率: 0.0002538
轨道倾角: 43.003°
近地点辐角 278.609°
升交点赤经 21.613°
平近点角 81.448°
近地点: 481.313km
远地点: 484.797km
周期: 94.267分钟
每日圈数: 15.275783
Detailed Information
固有亮度:
5
最大亮度:
2.5
卫星平台:
Starlink V1.0
覆盖范围:
全球
运营商:
太空探索技术公司
运营商所在国:
美国
制造商(研发单位):
太空探索技术公司
制造商所在国:
美国
使用方式:
暂无
Satellite Introduction
Starlink 计划是 SpaceX 推出的全球卫星互联网项目,通过发射低轨道卫星,为全球尤其是偏远地区提供高速、低延迟的互联网服务。自 2019 年起,Starlink 已部署数千颗卫星,旨在缩小全球数字鸿沟,推动互联网普及。该项目还为军事、航空等行业提供通信支持,带来广泛经济效益。
2D Orbit Map
3D Orbit Map
Orbit Altitude Analysis Chart
Orbit Inclination Analysis Chart
Orbit Comprehensive Analysis Chart
View Comprehensive Chart
Conjunction Data List
Event ID Objects TCA Miss Dist (km) Collision Risk Probability Collision Risk Index (CRI) Action
CDM_260906-171305-738006-717521
2026-09-06T
17:13:17+0000
0.168 km
中距离
7.654056E-4 高风险 0.93
CDM_260906-152005-709406-717521
2026-09-06T
15:20:04+0000
0.878 km
远距离
3.193092E-5 中风险 0.65
CDM_260906-165405-709406-717521
2026-09-06T
16:54:13+0000
1.217 km
极远距离
1.03464E-5 中风险 0.55
CDM_260906-184705-738006-717521
2026-09-06T
18:47:26+0000
1.370 km
极远距离
5.88461E-6 低风险 0.5
CDM_260906-153905-738006-717521
2026-09-06T
15:39:07+0000
1.577 km
极远距离
3.737919E-6 低风险 0.46
CDM_260906-134505-709406-717521
2026-09-06T
13:45:54+0000
2.435 km
极远距离
1.453866E-6 低风险 0.38
CDM_260906-182805-709406-717521
2026-09-06T
18:28:22+0000
2.893 km
极远距离
1.11572E-6 低风险 0.36
CDM_260906-202105-738006-717521
2026-09-06T
20:21:35+0000
2.875 km
极远距离
9.859807E-7 极低风险 0.35